Skip Page Navigation
NASA JPL Caltech
NASA Logo - Jet Propulsion Laboratory + View the NASA Portal
+ Center for Near-Earth Object Studies
JPL Home Earth Solar System Stars & Galaxies Technology
JPL Solar System Dynamics
BODIES ORBITS EPHEMERIDES TOOLS PHYSICAL DATA DISCOVERY FAQ SITE MAP
JPL Small-Body Database Browser
Search: [ help ]  
359492 (2010 OR82)
Classification: Main-belt Asteroid          SPK-ID: 2359492
Ephemeris | Orbit Diagram | Orbital Elements | Mission Design | Physical Parameters | Discovery Circumstances | Close-Approach Data ]

[ show orbit diagram ]
Orbital Elements at Epoch 2459000.5 (2020-May-31.0) TDB
Reference: JPL 13 (heliocentric ecliptic J2000)
 Element Value Uncertainty (1-sigma)   Units 
e .03722962336770049 6.7149e-08  
a 3.122683880185444 5.097e-08 au
q 3.006427535429751 2.2071e-07 au
i 3.533756002148802 7.8016e-06 deg
node 76.62485594423561 0.00013497 deg
peri 199.6077842505773 0.00019611 deg
M 18.72202351416481 0.00014689 deg
tp 2458895.680823230962
(2020-Feb-16.18082323)
0.00082189 TDB
period 2015.535532700511
5.52
4.9348e-05
1.351e-07
d
yr
n .1786125792174225 4.3731e-09 deg/d
Q 3.238940224941138 5.2868e-08 au
  Orbit Determination Parameters
   # obs. used (total)      174  
   data-arc span      5351 days (14.65 yr)  
   first obs. used      2004-09-13  
   last obs. used      2019-05-09  
   planetary ephem.      DE431  
   SB-pert. ephem.      SB431-N16  
   condition code      0  
   norm. resid. RMS      .60602  
   source      ORB  
   producer      Otto Matic  
   solution date      2020-Feb-26 00:44:09  

Additional Information
 Earth MOID = 1.99036 au 
 Jupiter MOID = 1.79679 au 
 T_jup = 3.212 
[ show covariance matrix ]

Ephemeris | Orbit Diagram | Orbital Elements | Mission Design | Physical Parameters | Discovery Circumstances | Close-Approach Data ]

Physical Parameter Table
Parameter Symbol Value Units Sigma Reference Notes
absolute magnitude H 15.8   n/a MPO437518  
diameter diameter 4.673 km 0.236 urn:nasa:pds:neowise_diameters_albedos::2.0[mainbelt] (http://adsabs.harvard.edu/abs/2011ApJ...741...68M)  
geometric albedo albedo 0.107   0.015 urn:nasa:pds:neowise_diameters_albedos::2.0[mainbelt] (http://adsabs.harvard.edu/abs/2011ApJ...741...68M)  

359492 (2010 OR82)          Discovered 2005-Oct-25 by Mt. Lemmon Survey at Mount Lemmon
Reference: 20130327/Numbers.arcLast Updated: 2013-03-29

[ show close-approach data ]
Alternate Designations
 2010 OR82 = 2005 WL110 = 2012 AJ5 
Ephemeris | Orbit Diagram | Orbital Elements | Mission Design | Physical Parameters | Discovery Circumstances | Close-Approach Data ]
ABOUT SSD CREDITS/AWARDS PRIVACY/COPYRIGHT GLOSSARY LINKS
FirstGov 2020-Sep-19 23:37 UT
(server date/time)  
NASA Home Page
Site Manager:   Ryan S. Park
Webmaster  Alan B. Chamberlin